TimeCDT,TemperatureF,Dew PointF,Humidity,Sea Level PressureIn,VisibilityMPH,Wind Direction,Wind SpeedMPH,Gust SpeedMPH,PrecipitationIn,Events,Conditions,WindDirDegrees,DateUTC
12:15 AM,60.8,53.6,77,30.24,5.0,ESE,6.9,-,N/A,,Overcast,110,2012-10-13 05:15:00
12:36 AM,60.8,53.6,77,30.24,4.0,East,3.5,-,N/A,,Overcast,100,2012-10-13 05:36:00
12:55 AM,60.8,53.6,77,30.23,3.0,East,3.5,-,N/A,,Overcast,100,2012-10-13 05:55:00
1:35 AM,60.8,53.6,77,30.22,1.5,ESE,5.8,-,N/A,,Overcast,120,2012-10-13 06:35:00
1:55 AM,60.8,53.6,77,30.22,0.8,ESE,6.9,-,N/A,,Overcast,110,2012-10-13 06:55:00
2:15 AM,60.8,55.4,82,30.22,0.5,ESE,5.8,-,N/A,,Overcast,120,2012-10-13 07:15:00
2:35 AM,60.8,55.4,82,30.22,0.5,ESE,4.6,-,N/A,,Overcast,110,2012-10-13 07:35:00
3:15 AM,60.8,55.4,82,30.21,0.5,ESE,4.6,-,N/A,,Overcast,120,2012-10-13 08:15:00
3:35 AM,60.8,55.4,82,30.21,0.5,ESE,5.8,-,N/A,,Overcast,120,2012-10-13 08:35:00
3:55 AM,60.8,55.4,82,30.20,0.5,ESE,5.8,-,N/A,,Overcast,120,2012-10-13 08:55:00
4:15 AM,60.8,55.4,82,30.20,0.5,SE,5.8,-,N/A,,Overcast,130,2012-10-13 09:15:00
4:35 AM,60.8,55.4,82,30.19,0.5,ESE,6.9,-,N/A,,Overcast,120,2012-10-13 09:35:00
4:55 AM,60.8,55.4,82,30.19,0.5,SE,6.9,-,N/A,,Overcast,130,2012-10-13 09:55:00
5:15 AM,62.6,55.4,77,30.18,1.0,SE,6.9,-,N/A,,Overcast,130,2012-10-13 10:15:00
5:55 AM,62.6,55.4,77,30.19,1.5,SE,5.8,-,N/A,,Overcast,130,2012-10-13 10:55:00
6:15 AM,62.6,55.4,77,30.19,2.5,SE,4.6,-,N/A,,Overcast,140,2012-10-13 11:15:00
6:35 AM,62.6,57.2,82,30.20,3.0,SE,3.5,-,N/A,,Overcast,130,2012-10-13 11:35:00
6:55 AM,62.6,57.2,82,30.20,1.8,ESE,4.6,-,N/A,,Overcast,120,2012-10-13 11:55:00
7:15 AM,62.6,57.2,82,30.20,0.8,SE,5.8,-,N/A,,Overcast,130,2012-10-13 12:15:00
7:35 AM,62.6,57.2,82,30.20,0.5,SE,5.8,-,N/A,,Overcast,130,2012-10-13 12:35:00
9:35 AM,68.0,60.8,78,30.19,5.0,South,8.1,-,N/A,,Mostly Cloudy,180,2012-10-13 14:35:00
9:55 AM,69.8,62.6,78,30.19,7.0,SSE,9.2,-,N/A,,Scattered Clouds,160,2012-10-13 14:55:00
10:15 AM,71.6,62.6,73,30.18,8.0,South,6.9,-,N/A,,Partly Cloudy,180,2012-10-13 15:15:00
10:35 AM,73.4,62.6,69,30.18,10.0,South,6.9,-,N/A,,Clear,170,2012-10-13 15:35:00
10:56 AM,75.2,62.6,65,30.18,10.0,South,9.2,-,N/A,,Scattered Clouds,170,2012-10-13 15:56:00
11:15 AM,77.0,62.6,61,30.17,10.0,South,6.9,-,N/A,,Mostly Cloudy,180,2012-10-13 16:15:00
11:35 AM,78.8,62.6,57,30.16,10.0,South,10.4,-,N/A,,Mostly Cloudy,190,2012-10-13 16:35:00
11:56 AM,78.8,62.6,57,30.15,10.0,South,11.5,16.1,N/A,,Scattered Clouds,180,2012-10-13 16:56:00
12:35 PM,78.8,60.8,54,30.14,10.0,South,6.9,17.3,N/A,,Mostly Cloudy,190,2012-10-13 17:35:00
12:56 PM,78.8,62.6,57,30.13,10.0,SSW,10.4,-,N/A,,Mostly Cloudy,200,2012-10-13 17:56:00
1:15 PM,78.8,60.8,54,30.12,10.0,SSW,9.2,18.4,N/A,,Mostly Cloudy,200,2012-10-13 18:15:00
1:35 PM,78.8,60.8,54,30.11,10.0,SSW,10.4,17.3,N/A,,Mostly Cloudy,210,2012-10-13 18:35:00
2:15 PM,80.6,60.8,51,30.09,10.0,SSW,9.2,20.7,N/A,,Scattered Clouds,210,2012-10-13 19:15:00
2:35 PM,80.6,60.8,51,30.08,10.0,South,9.2,17.3,N/A,,Scattered Clouds,190,2012-10-13 19:35:00
3:15 PM,80.6,60.8,51,30.06,10.0,South,6.9,17.3,N/A,,Scattered Clouds,180,2012-10-13 20:15:00
3:35 PM,80.6,59.0,48,30.06,10.0,South,10.4,16.1,N/A,,Mostly Cloudy,170,2012-10-13 20:35:00
3:55 PM,80.6,59.0,48,30.05,10.0,SSW,8.1,19.6,N/A,,Mostly Cloudy,210,2012-10-13 20:55:00
4:15 PM,80.6,59.0,48,30.05,10.0,South,8.1,-,N/A,,Scattered Clouds,180,2012-10-13 21:15:00
4:35 PM,80.6,59.0,48,30.05,10.0,South,8.1,17.3,N/A,,Scattered Clouds,180,2012-10-13 21:35:00
4:55 PM,80.6,59.0,48,30.04,10.0,South,9.2,-,N/A,,Partly Cloudy,180,2012-10-13 21:55:00
5:16 PM,78.8,59.0,51,30.04,10.0,South,8.1,-,N/A,,Scattered Clouds,180,2012-10-13 22:16:00
5:35 PM,77.0,57.2,50,30.04,10.0,South,5.8,-,N/A,,Mostly Cloudy,180,2012-10-13 22:35:00
5:55 PM,77.0,57.2,50,30.03,10.0,South,6.9,-,N/A,,Clear,170,2012-10-13 22:55:00
6:35 PM,73.4,57.2,57,30.03,10.0,SSE,4.6,-,N/A,,Clear,160,2012-10-13 23:35:00
7:35 PM,71.6,55.4,57,30.03,10.0,SSE,4.6,-,N/A,,Clear,150,2012-10-14 00:35:00
8:35 PM,71.6,57.2,60,30.03,10.0,South,5.8,-,N/A,,Clear,170,2012-10-14 01:35:00
9:15 PM,69.8,57.2,64,30.03,10.0,SSE,6.9,-,N/A,,Clear,160,2012-10-14 02:15:00
9:55 PM,69.8,57.2,64,30.03,10.0,South,5.8,-,N/A,,Clear,170,2012-10-14 02:55:00
10:15 PM,69.8,57.2,64,30.01,10.0,SSE,6.9,-,N/A,,Clear,150,2012-10-14 03:15:00
11:15 PM,69.8,57.2,64,29.99,10.0,SSE,6.9,-,N/A,,Clear,150,2012-10-14 04:15:00
11:35 PM,69.8,57.2,64,29.98,10.0,SSE,8.1,-,N/A,,Clear,160,2012-10-14 04:35:00
11:56 PM,69.8,57.2,64,29.98,10.0,SSE,9.2,-,N/A,,Clear,160,2012-10-14 04:56:00